sat.trackr.live / text

‹ back to catalog

KUIPER-00183

NORAD 67138 · 2025-301F

PAYLOAD ACTIVE UNKNOWN

§ Identity

Operator
Country
US
Launch date
2025-12-16
Launch site
AFETR
Launch vehicle
Mass (kg)
RCS (m²)

External: N2YO · Heavens-Above · Gunter

§ Orbital elements

Epoch: 2026-05-25T02:28:50.412864Z

Period
96.48 min
Inclination
51.8948°
Eccentricity
0.0008920
Mean motion
14.92574742 rev/d
Perigee alt
583.7 km
Apogee alt
596.1 km
Semi-major
6,968.0 km
B*
4.3140e-4
RAAN
77.0931°
Arg perigee
326.2956°
Mean anomaly
33.7443°
Rev number
2,536

§ Raw data

KUIPER-001831 67138U 25301F   26145.10336126  .00004238  00000+0  43140-3 0  99972 67138  51.8948  77.0931 0008920 326.2956  33.7443 14.92574742 25366

JSON: /api/v1/satellites/67138 · /tle

For live sub-satellite position, see the globe view (requires WebGL).

§ Visibility from observer

Set your observer location to see the next 7 days of passes ≥ 10°. The values pass through the URL so the page stays shareable.

No JS? Fill the form by hand. The geolocation button needs JavaScript.